Hourly Data Report for July 27, 2021

CLYDE RIVER A
NUNAVUT
Current Station Operator: NAVCAN

70°29'09.000" N
68°31'01.000" W
26.50 m
2400804
71090
YCY

Download Data

Hourly Data (July 2021)
Hourly Data Report for July 27, 2021
TIME
LST
Temp Definition
°C
Dew Point Definition
°C
Rel Hum Definition
%
Precip. Amount Definition
mm

Wind Dir Definition
10's deg

Wind Spd Definition
km/h
Visibility Definition
km
Stn Press Definition
kPa
Hmdx Definition


Wind Chill Definition


Weather Definition


00:00 1.2 1.2 100 0.0 17 8 0.2 99.60     Fog
01:00 0.8 0.8 100 0.0 LegendMM 4 0.4 99.64     Fog
02:00 1.9 1.9 100 0.0 26 5 16.1 99.68     LegendNANA
03:00 1.9 1.9 100 0.0 30 4 16.1 99.73     LegendNANA
04:00 3.2 3.1 99 0.0 26 5 16.1 99.75     LegendNANA
05:00 3.4 3.0 97 0.0 12 5 16.1 99.83     LegendNANA
06:00 4.0 3.4 96 0.0 12 5 16.1 99.88     LegendNANA
07:00 5.8 4.3 90 0.0 25 11 16.1 99.92     LegendNANA
08:00 8.1 5.3 82 0.0 24 11 16.1 99.94     LegendNANA
09:00 12.6 7.5 71 0.0 LegendMM 11 16.1 99.95     LegendNANA
10:00 8.4 5.6 82 0.0 13 17 16.1 100.00     LegendNANA
11:00 9.5 6.0 79 0.0 25 9 16.1 100.03     LegendNANA
12:00 12.5 6.9 69 0.0 23 11 16.1 100.07     LegendNANA
13:00 12.7 7.2 69 0.0 22 5 16.1 100.11     LegendNANA
14:00 13.6 7.1 65 0.0 20 5 16.1 100.16     LegendNANA
15:00 12.0 6.9 71 0.0 11 11 16.1 100.22     LegendNANA
16:00 11.9 6.1 68 0.0 13 18 16.1 100.24     LegendNANA
17:00 10.7 5.5 70 0.0 13 22 16.1 100.28     LegendNANA
18:00 10.9 5.8 71 0.0 10 13 16.1 100.30     LegendNANA
19:00 9.5 4.9 73 0.0 9 13 16.1 100.31     LegendNANA
20:00 8.1 4.6 78 0.0 1 13 16.1 100.33     LegendNANA
21:00 5.9 3.6 85 0.0 36 11 16.1 100.35     LegendNANA
22:00 4.2 2.7 90 0.0 LegendMM 4 16.1 100.37     LegendNANA
23:00 4.8 3.2 89 0.0   0 16.1 100.36     LegendNANA

Notes on Data Quality.

Legend

  • E = Estimated
  • M = Missing
  • NA = Not Available*
  • [empty] = Indicates an unobserved value
Date modified: